This is the latest recevied weather packets stored in our database for station/object W4BOD. If no packets are shown the sender has not sent any weather packets the latest 10 day(s).
| Time | Temp. | Humidity | Pressure | Rain* | Wind** | Luminosity | Snow |
|---|---|---|---|---|---|---|---|
| 1777927644 | 27.78° C | 41% | 1010 hPa | 0 mm | - | 138 W/m² | - |
| 1777927342 | 27.78° C | 41% | 1010 hPa | 0 mm | - | 596 W/m² | - |
| 1777927041 | 26.67° C | 45% | 1009.9 hPa | 0 mm | - | 130 W/m² | - |
| 1777926738 | 27.22° C | 43% | 1010.1 hPa | 0 mm | - | 545 W/m² | - |
| 1777926438 | 27.78° C | 40% | 1010.2 hPa | 0 mm | - | 664 W/m² | - |
| 1777926135 | 27.22° C | 42% | 1010.3 hPa | 0 mm | - | 690 W/m² | - |
| 1777925832 | 27.78° C | 43% | 1010.3 hPa | 0 mm | - | 135 W/m² | - |
| 1777925530 | 27.78° C | 42% | 1010.5 hPa | 0 mm | - | 706 W/m² | - |
| 1777925227 | 27.22° C | 43% | 1010.4 hPa | 0 mm | - | 686 W/m² | - |
| 1777924923 | 27.22° C | 45% | 1010.6 hPa | 0 mm | - | 732 W/m² | - |
| 1777924619 | 27.78° C | 45% | 1010.6 hPa | 0 mm | - | 312 W/m² | - |
| 1777924315 | 27.78° C | 49% | 1010.5 hPa | 0 mm | - | 712 W/m² | - |
| 1777924013 | 27.78° C | 45% | 1010.7 hPa | 0 mm | - | 765 W/m² | - |
| 1777923708 | 27.78° C | 43% | 1010.8 hPa | 0 mm | - | 776 W/m² | - |
| 1777923405 | 27.78° C | 47% | 1010.8 hPa | 0 mm | - | 776 W/m² | - |
| 1777923103 | 27.78° C | 44% | 1011 hPa | 0 mm | - | 784 W/m² | - |
| 1777922801 | 27.78° C | 45% | 1011 hPa | 0 mm | - | 822 W/m² | - |
| 1777922499 | 27.78° C | 44% | 1011 hPa | 0 mm | - | 851 W/m² | - |
| 1777922197 | 27.78° C | 45% | 1011.2 hPa | 0 mm | - | 825 W/m² | - |
| 1777921893 | 27.22° C | 46% | 1011.4 hPa | 0 mm | - | 838 W/m² | - |
| 1777921589 | 27.78° C | 47% | 1011.4 hPa | 0 mm | - | 426 W/m² | - |
| 1777921286 | 27.78° C | 47% | 1011.6 hPa | 0 mm | - | 863 W/m² | - |
| 1777920982 | 27.22° C | 48% | 1011.6 hPa | 0 mm | - | 872 W/m² | - |
| 1777920679 | 27.22° C | 49% | 1011.7 hPa | 0 mm | - | 895 W/m² | - |
| 1777920374 | 27.22° C | 49% | 1011.5 hPa | 0 mm | - | 897 W/m² | - |
* Rain latest hour (hover to see other rain measurements)
** Current wind speed in m/s (hover to see current wind gust speed)